Fairfield, IA

6:15 AM CST on January 23, 2018 (GMT -0600)
Fairfield Municipal

Weather History for KFFL - January, 2014

Change the Weather History Date:

Wednesday, January 22, 2014

  Actual Average Record
Temperature  
Mean Temperature 8 °F -  
Max Temperature 19 °F 36 °F 64 °F (2002)
Min Temperature -2 °F 18 °F -8 °F (1991)
Degree Days  
Heating Degree Days 56    
Moisture  
Dew Point 2 °F    
Average Humidity 64    
Maximum Humidity 73    
Minimum Humidity 53    
Precipitation  
Precipitation 0.00 in - - ()
Sea Level Pressure  
Sea Level Pressure 30.12 in    
Wind  
Wind Speed 15 mph (WNW)    
Max Wind Speed 29 mph    
Max Gust Speed 37 mph    
Visibility 9 miles    
Events Snow    
Averages and records for this station are not official NWS values.
T = Trace of Precipitation, MM = Missing Value Source: NWS Daily Summary

Daily Weather History Graph

Daily Weather History Graph

Search for Another Location

Airport or City:

Trip Planner

Search our weather history database for the weather conditions in past years. The results will help you decide how hot, cold, wet, or windy it might be!

Date:

Astronomy

Jan. 22, 2014 Rise Set
Actual Time 7:26 AM CST 5:12 PM CST
Civil Twilight 6:57 AM CST 5:42 PM CST
Nautical Twilight 6:23 AM CST 6:15 PM CST
Astronomical Twilight 5:50 AM CST 6:48 PM CST
Moon 11:49 PM CST (1/22) 10:24 AM CST (1/22)
Length of Visible Light 10h 45m
Length of Day
9h 45m
Waning Gibbous, 65% of the Moon is Illuminated
Jan 22
Waning Gibbous
Jan 23
Last Quarter
Jan 30
New
Feb 6
First Quarter
Feb 14
Full

Hourly Weather History & Observations

Time (CST) Temp. Windchill Dew Point Humidity Pressure Visibility Wind Dir Wind Speed Gust Speed Precip Events Conditions
12:15 AM 10.4 °F -3.3 °F -0.4 °F 62% 30.12 in 10.0 mi SSE 10.4 mph - N/A   Overcast
12:35 AM 10.4 °F -4.1 °F -0.4 °F 62% 30.11 in 10.0 mi SSE 11.5 mph - N/A   Overcast
12:55 AM 10.4 °F -4.1 °F -0.4 °F 62% 30.09 in 10.0 mi SSE 11.5 mph - N/A   Overcast
1:15 AM 10.4 °F -4.1 °F -0.4 °F 62% 30.07 in 10.0 mi SSE 11.5 mph - N/A   Overcast
1:35 AM 10.4 °F -4.8 °F 1.4 °F 67% 30.06 in 10.0 mi South 12.7 mph - N/A   Overcast
1:55 AM 10.4 °F -4.1 °F 1.4 °F 67% 30.06 in 10.0 mi South 11.5 mph - N/A   Overcast
2:15 AM 10.4 °F -3.3 °F 1.4 °F 67% 30.05 in 10.0 mi South 10.4 mph - N/A   Overcast
2:35 AM 12.2 °F -0.2 °F 1.4 °F 62% 30.04 in 10.0 mi South 9.2 mph - N/A   Overcast
2:55 AM 12.2 °F -1.0 °F 1.4 °F 62% 30.04 in 10.0 mi South 10.4 mph - N/A   Overcast
3:15 AM 12.2 °F -1.0 °F 1.4 °F 62% 30.03 in 10.0 mi South 10.4 mph - N/A   Mostly Cloudy
3:55 AM 12.2 °F -1.8 °F 3.2 °F 67% 30.01 in 10.0 mi South 11.5 mph - N/A   Overcast
4:15 AM 12.2 °F -0.2 °F 3.2 °F 67% 30.01 in 10.0 mi South 9.2 mph - N/A   Overcast
4:35 AM 12.2 °F -0.2 °F 5.0 °F 73% 30.00 in 10.0 mi South 9.2 mph - N/A   Overcast
4:55 AM 12.2 °F -0.2 °F 5.0 °F 73% 30.00 in 10.0 mi SSW 9.2 mph - N/A   Overcast
5:15 AM 14.0 °F 2.9 °F 5.0 °F 67% 29.99 in 10.0 mi SSW 8.1 mph - N/A   Overcast
5:35 AM 14.0 °F 3.9 °F 6.8 °F 73% 29.98 in 10.0 mi South 6.9 mph - N/A   Overcast
5:55 AM 14.0 °F 3.9 °F 5.0 °F 67% 29.98 in 10.0 mi SSW 6.9 mph - N/A   Overcast
6:15 AM 14.0 °F 3.9 °F 6.8 °F 73% 29.99 in 10.0 mi SW 6.9 mph - N/A   Overcast
6:35 AM 14.0 °F 5.1 °F 6.8 °F 73% 29.99 in 10.0 mi SW 5.8 mph - N/A   Overcast
6:55 AM 15.8 °F 5.1 °F 6.8 °F 68% 29.99 in 10.0 mi SW 8.1 mph - N/A   Overcast
7:15 AM 15.8 °F 4.2 °F 6.8 °F 68% 30.00 in 10.0 mi West 9.2 mph - N/A Snow Light Snow
7:35 AM 17.6 °F 4.3 °F 8.6 °F 68% 30.00 in 4.0 mi WNW 12.7 mph 18.4 mph N/A Snow Light Snow
7:55 AM 17.6 °F 2.7 °F 10.4 °F 73% 30.01 in 9.0 mi NW 16.1 mph - N/A Snow Light Snow
8:15 AM 17.6 °F 0.5 °F 8.6 °F 68% 30.01 in 9.0 mi NW 21.9 mph 28.8 mph N/A Snow Light Snow
8:35 AM 17.6 °F 0.9 °F 6.8 °F 63% 30.02 in 10.0 mi NW 20.7 mph 29.9 mph N/A Snow Light Snow
8:55 AM 17.6 °F 0.1 °F 8.6 °F 68% 30.02 in 10.0 mi NW 23.0 mph - N/A   Overcast
9:15 AM 17.6 °F 1.3 °F 6.8 °F 63% 30.04 in 10.0 mi NW 19.6 mph 28.8 mph N/A   Overcast
9:35 AM 17.6 °F 0.9 °F 6.8 °F 63% 30.04 in 10.0 mi NW 20.7 mph - N/A   Overcast
9:55 AM 17.6 °F 1.3 °F 6.8 °F 63% 30.04 in 10.0 mi NW 19.6 mph 26.5 mph N/A   Scattered Clouds
10:15 AM 17.6 °F 3.2 °F 6.8 °F 63% 30.04 in 10.0 mi WNW 15.0 mph 21.9 mph N/A   Partly Cloudy
10:35 AM 17.6 °F 3.2 °F 6.8 °F 63% 30.03 in 10.0 mi WNW 15.0 mph 23.0 mph N/A   Scattered Clouds
10:55 AM 19.4 °F 5.0 °F 8.6 °F 63% 30.04 in 10.0 mi WNW 16.1 mph - N/A   Mostly Cloudy
11:35 AM 17.6 °F 2.2 °F 8.6 °F 68% 30.05 in 7.0 mi WNW 17.3 mph 32.2 mph N/A Snow Light Snow
11:55 AM 17.6 °F 1.7 °F 6.8 °F 63% 30.04 in 10.0 mi WNW 18.4 mph - N/A   Overcast
12:15 PM 17.6 °F 1.3 °F 6.8 °F 63% 30.04 in 10.0 mi WNW 19.6 mph - N/A   Overcast
12:35 PM 17.6 °F 1.7 °F 6.8 °F 63% 30.05 in 10.0 mi NW 18.4 mph 26.5 mph N/A   Overcast
12:55 PM 17.6 °F 0.5 °F 6.8 °F 63% 30.06 in 10.0 mi NW 21.9 mph 28.8 mph N/A   Overcast
1:15 PM 17.6 °F 1.3 °F 6.8 °F 63% 30.05 in 10.0 mi NW 19.6 mph 29.9 mph N/A Snow Light Snow
1:35 PM 17.6 °F 1.3 °F 6.8 °F 63% 30.05 in 10.0 mi WNW 19.6 mph 29.9 mph N/A Snow Light Snow
1:55 PM 19.4 °F 3.2 °F 8.6 °F 63% 30.05 in 10.0 mi WNW 20.7 mph 29.9 mph N/A Snow Light Snow
2:15 PM 19.4 °F 3.2 °F 8.6 °F 63% 30.05 in 10.0 mi WNW 20.7 mph 28.8 mph N/A   Mostly Cloudy
2:35 PM 19.4 °F 3.6 °F 6.8 °F 58% 30.06 in 10.0 mi WNW 19.6 mph 26.5 mph N/A   Mostly Cloudy
2:55 PM 19.4 °F 4.1 °F 8.6 °F 63% 30.07 in 9.0 mi WNW 18.4 mph 25.3 mph N/A Snow Light Snow
3:15 PM 17.6 °F 0.9 °F 10.4 °F 73% 30.08 in 3.0 mi WNW 20.7 mph 28.8 mph N/A Snow Light Snow
3:35 PM 17.6 °F 0.1 °F 10.4 °F 73% 30.09 in 6.0 mi NW 23.0 mph 28.8 mph N/A Snow Light Snow
3:55 PM 17.6 °F -0.6 °F 5.0 °F 58% 30.09 in 10.0 mi NW 25.3 mph 33.4 mph N/A   Mostly Cloudy
4:15 PM 15.8 °F -1.5 °F 5.0 °F 62% 30.12 in 10.0 mi NW 20.7 mph 31.1 mph N/A   Mostly Cloudy
4:35 PM 15.8 °F -1.1 °F 3.2 °F 58% 30.13 in 10.0 mi NW 19.6 mph 31.1 mph N/A   Mostly Cloudy
4:55 PM 14.0 °F -5.1 °F 3.2 °F 62% 30.14 in 9.0 mi NW 24.2 mph 33.4 mph N/A Snow Light Snow
5:15 PM 12.2 °F -8.2 °F -2.2 °F 53% 30.16 in 10.0 mi NW 26.5 mph - N/A   Scattered Clouds
5:35 PM 10.4 °F -8.2 °F -2.2 °F 57% 30.18 in 10.0 mi NW 19.6 mph 36.8 mph N/A   Partly Cloudy
5:55 PM 8.6 °F -13.1 °F -0.4 °F 67% 30.19 in 10.0 mi NW 26.5 mph - N/A   Scattered Clouds
6:15 PM 8.6 °F -12.7 °F -0.4 °F 67% 30.21 in 10.0 mi NNW 25.3 mph - N/A   Mostly Cloudy
6:35 PM 6.8 °F -15.1 °F -4.0 °F 61% 30.22 in 10.0 mi NW 25.3 mph 34.5 mph N/A   Scattered Clouds
6:55 PM 5.0 °F -16.7 °F -5.8 °F 61% 30.24 in 10.0 mi NW 23.0 mph 36.8 mph N/A Snow Light Snow
7:15 PM 5.0 °F -17.5 °F -7.6 °F 56% 30.26 in 10.0 mi NW 25.3 mph 32.2 mph N/A   Mostly Cloudy
7:35 PM 3.2 °F -18.6 °F -7.6 °F 61% 30.28 in 10.0 mi NW 21.9 mph 33.4 mph N/A   Mostly Cloudy
7:55 PM 3.2 °F -18.6 °F -5.8 °F 66% 30.29 in 10.0 mi NW 21.9 mph 31.1 mph N/A   Mostly Cloudy
8:15 PM 3.2 °F -18.6 °F -5.8 °F 66% 30.31 in 3.0 mi NW 21.9 mph 29.9 mph N/A   Haze
8:35 PM 1.4 °F -23.2 °F -7.6 °F 66% 30.32 in 4.0 mi NNW 27.6 mph 36.8 mph N/A   Light Freezing Rain
8:55 PM 1.4 °F -21.9 °F -9.4 °F 61% 30.34 in 8.0 mi NW 24.2 mph 33.4 mph N/A   Overcast
9:15 PM -0.4 °F -25.6 °F -11.2 °F 60% 30.34 in 10.0 mi NNW 27.6 mph - N/A   Mostly Cloudy
9:35 PM -0.4 °F -26.0 °F -11.2 °F 60% 30.35 in 10.0 mi NW 28.8 mph - N/A   Mostly Cloudy
9:55 PM -0.4 °F -21.2 °F -11.2 °F 60% 30.38 in 10.0 mi NW 17.3 mph 33.4 mph N/A   Overcast
10:15 PM -0.4 °F -22.8 °F -11.2 °F 60% 30.39 in 10.0 mi NW 20.7 mph - N/A   Overcast
10:35 PM -0.4 °F -23.8 °F -11.2 °F 60% 30.40 in 10.0 mi NW 23.0 mph 32.2 mph N/A   Mostly Cloudy
10:55 PM -2.2 °F -25.7 °F -11.2 °F 66% 30.40 in 10.0 mi NW 21.9 mph 29.9 mph N/A   Overcast
11:15 PM -2.2 °F -25.2 °F -13.0 °F 60% 30.41 in 10.0 mi NW 20.7 mph - N/A   Mostly Cloudy
11:35 PM -2.2 °F -25.7 °F -13.0 °F 60% 30.43 in 10.0 mi NW 21.9 mph - N/A   Scattered Clouds
11:55 PM -2.2 °F -25.7 °F -13.0 °F 60% 30.43 in 10.0 mi NW 21.9 mph - N/A   Partly Cloudy